Location: Brede
(50.9167°N, 0.6000°E)
Time: 09:21:14
(UTC+00:00)

Tiros 1 - Pass Details

Date: 05 December 2020
Orbit: 630 x 663 km, 48.4° (Epoch: 16 January)

Event Time Altitude Azimuth Distance (km) Brightness Sun altitude
Rises 19:27:09 0° 276° (W) 2,989 11.7 -32.7°
Reaches altitude 10° 19:31:00 10° 245° (WSW) 2,066 10.4 -33.3°
Maximum altitude 19:32:43 12° 224° (SW) 1,939 10.0 -33.6°
Enters shadow 19:33:23 12° 215° (SW) 1,957 9.9 -33.7°
